Weather History for Alma, GA

Change the Weather History Date:

Thursday, January 31, 2013

  Actual Average Record
Temperature  
Mean Temperature 48 °F 52 °F  
Max Temperature 57 °F 63 °F 82 °F (2002)
Min Temperature 39 °F 41 °F 17 °F (1966)
Degree Days  
Heating Degree Days 17 13  
Month to date heating degree days 257 450  
Since 1 July heating degree days 851 1089  
Cooling Degree Days 0 0  
Month to date cooling degree days 24 5  
Year to date cooling degree days 24 5  
Moisture  
Dew Point 31 °F    
Average Humidity 52    
Maximum Humidity 77    
Minimum Humidity 26    
Precipitation  
Precipitation 0.00 in 0.15 in 0.62 in (1959)
Month to date precipitation 0.57 4.26  
Year to date precipitation 0.57 4.26  
Snow  
Snow 0.00 in 0.00 in 0.00 in ()
Month to date snowfall 0.0 0.0  
Since 1 July snowfall 0.0 0.1  
Snow Depth 0.00 in    
Sea Level Pressure  
Sea Level Pressure 30.09 in    
Wind  
Wind Speed 9 mph (WNW)    
Max Wind Speed 21 mph    
Max Gust Speed 29 mph    
Visibility 10 miles    
Events      
T = Trace of Precipitation, MM = Missing Value Source: NWS Daily Summary

Daily Weather History Graph

Daily Weather History Graph

Search for Another Location

Airport:

Trip Planner

Search our weather history database for the weather conditions in past years. The results will help you decide how hot, cold, wet, or windy it might be!

Date:

Astronomy

Jan. 31, 2013 Rise Set
Actual Time 7:23 AM EST 6:04 PM EST
Civil Twilight 6:57 AM EST 6:29 PM EST
Nautical Twilight 6:28 AM EST 6:58 PM EST
Astronomical Twilight 5:59 AM EST 7:27 PM EST
Moon 10:41 PM EST (1/31) 9:43 AM EST (1/31)
Length of Visible Light 11h 31m
Length of Day
10h 40m
Waning Gibbous, 80% of the Moon is Illuminated
Jan 31
Waning Gibbous
Feb 3
Last Quarter
Feb 10
New
Feb 17
First Quarter
Feb 25
Full

Hourly Weather History & Observations

Time (EST) Temp. Windchill Dew Point Humidity Pressure Visibility Wind Dir Wind Speed Gust Speed Precip Events Conditions
12:53 AM 55.0 °F - 46.9 °F 74% 29.86 in 10.0 mi West 9.2 mph - N/A   Overcast
1:53 AM 55.0 °F - 43.0 °F 64% 29.90 in 10.0 mi West 18.4 mph 27.6 mph N/A   Overcast
2:53 AM 52.0 °F - 39.0 °F 61% 29.93 in 10.0 mi WNW 15.0 mph 20.7 mph N/A   Scattered Clouds
3:53 AM 48.9 °F - 34.0 °F 56% 29.97 in 10.0 mi WNW 13.8 mph 24.2 mph N/A   Partly Cloudy
4:53 AM 46.9 °F - 33.1 °F 59% 29.99 in 10.0 mi West 13.8 mph 18.4 mph N/A   Clear
5:53 AM 45.0 °F 38.9 °F 33.1 °F 63% 30.02 in 10.0 mi West 12.7 mph - N/A   Clear
6:53 AM 43.0 °F 38.2 °F 32.0 °F 65% 30.04 in 10.0 mi West 8.1 mph - N/A   Clear
7:53 AM 43.0 °F 38.2 °F 30.9 °F 62% 30.08 in 10.0 mi West 8.1 mph - N/A   Clear
8:53 AM 45.0 °F 39.7 °F 32.0 °F 60% 30.10 in 10.0 mi WNW 10.4 mph - N/A   Clear
9:53 AM 46.9 °F - 30.0 °F 52% 30.13 in 10.0 mi WNW 12.7 mph 19.6 mph N/A   Clear
10:53 AM 50.0 °F - 28.0 °F 43% 30.14 in 10.0 mi WNW 12.7 mph - N/A   Clear
11:53 AM 52.0 °F - 28.9 °F 41% 30.15 in 10.0 mi West 9.2 mph - N/A   Clear
12:53 PM 53.1 °F - 28.9 °F 40% 30.14 in 10.0 mi West 11.5 mph 17.3 mph N/A   Clear
1:53 PM 55.0 °F - 25.0 °F 31% 30.12 in 10.0 mi WNW 10.4 mph 28.8 mph N/A   Clear
2:53 PM 55.0 °F - 25.0 °F 31% 30.13 in 10.0 mi WNW 12.7 mph 21.9 mph N/A   Clear
3:53 PM 57.0 °F - 24.1 °F 28% 30.13 in 10.0 mi WNW 15.0 mph 20.7 mph N/A   Clear
4:53 PM 55.0 °F - 21.9 °F 28% 30.14 in 10.0 mi West 13.8 mph - N/A   Clear
5:53 PM 53.1 °F - 23.0 °F 31% 30.15 in 10.0 mi West 5.8 mph - N/A   Clear
6:53 PM 43.0 °F - 32.0 °F 65% 30.17 in 10.0 mi Calm Calm - N/A   Clear
7:53 PM 41.0 °F - 30.9 °F 67% 30.19 in 10.0 mi Calm Calm - N/A   Clear
8:53 PM 39.9 °F - 32.0 °F 73% 30.22 in 10.0 mi Calm Calm - N/A   Clear
11:53 PM 42.1 °F 40.2 °F 28.9 °F 60% 30.24 in 10.0 mi WSW 3.5 mph - N/A   Clear